Volver al catálogo

COSMOS 2538

ActivoMilitarSSO
NORAD 44424·PAYLOAD·🇷🇺 Russia

Lanzado Jul 10, 2019 desde Plesetsk Cosmodrome

Loading…

Próximos Pases (próximas 24 horas)

TLE

ActualizadoSource: Space-Track

Época: Sep 14, 2026, 12:06 UTC

1 44424U 19039D   26257.50416959  .00005117  00000-0  22471-3 0  9994
2 44424  97.5824 337.5425 0042758  93.2532 267.3596 15.21558514393486

Sigue COSMOS 2538 en tiempo real con AllMySat

Download on the App Store